Weather History for Sandpoint, ID

Change the Weather History Date:

Wednesday, May 15, 2013

  Actual Average Record
Temperature  
Mean Temperature 48 °F -  
Max Temperature 64 °F 64 °F 86 °F (2006)
Min Temperature 32 °F 39 °F 28 °F (1932)
Degree Days  
Heating Degree Days 17    
Moisture  
Dew Point 37 °F    
Average Humidity 68    
Maximum Humidity 100    
Minimum Humidity 30    
Precipitation  
Precipitation 0.00 in - - ()
Sea Level Pressure  
Sea Level Pressure 30.02 in    
Wind  
Wind Speed 1 mph (ESE)    
Max Wind Speed 7 mph    
Max Gust Speed -    
Visibility 10 miles    
Events      
Averages and records for this station are not official NWS values.
T = Trace of Precipitation, MM = Missing Value Source: NWS Daily Summary

Daily Weather History Graph

Daily Weather History Graph

Search for Another Location

Airport:

Trip Planner

Search our weather history database for the weather conditions in past years. The results will help you decide how hot, cold, wet, or windy it might be!

Date:

Astronomy

May. 15, 2013 Rise Set
Actual Time 5:06 AM PDT 8:19 PM PDT
Civil Twilight 4:28 AM PDT 8:57 PM PDT
Nautical Twilight 3:39 AM PDT 9:46 PM PDT
Astronomical Twilight 2:37 AM PDT 10:49 PM PDT
Moon 9:50 AM PDT (5/15) 12:05 AM PDT (5/15)
Length of Visible Light 16h 28m
Length of Day
15h 13m
Waxing Crescent, 28% of the Moon is Illuminated
May 15
Waxing Crescent
May 17
First Quarter
May 24
Full
May 31
Last Quarter
Jun 8
New

Hourly Weather History & Observations

Time (PDT) Temp. Windchill Dew Point Humidity Pressure Visibility Wind Dir Wind Speed Gust Speed Precip Events Conditions
12:15 AM 35.6 °F - 35.6 °F 100% 30.09 in 10.0 mi Calm Calm - N/A   Clear
12:35 AM 35.6 °F - 35.6 °F 100% 30.10 in 10.0 mi Calm Calm - N/A   Clear
12:55 AM 35.6 °F - 35.6 °F 100% 30.10 in 10.0 mi Calm Calm - N/A   Clear
1:15 AM 35.6 °F - 35.6 °F 100% 30.10 in 10.0 mi Calm Calm - N/A   Clear
1:35 AM 35.6 °F - 35.6 °F 100% 30.10 in 10.0 mi Calm Calm - N/A   Clear
1:55 AM 33.8 °F - 33.8 °F 100% 30.10 in 10.0 mi Calm Calm - N/A   Clear
2:15 AM 33.8 °F - 33.8 °F 100% 30.10 in 10.0 mi Calm Calm - N/A   Clear
2:35 AM 33.8 °F - 33.8 °F 100% 30.10 in 10.0 mi Calm Calm - N/A   Clear
2:55 AM 33.8 °F - 33.8 °F 100% 30.10 in 10.0 mi Calm Calm - N/A   Clear
3:15 AM 33.8 °F - 33.8 °F 100% 30.11 in 10.0 mi Calm Calm - N/A   Clear
3:35 AM 33.8 °F - 33.8 °F 100% 30.11 in 10.0 mi Calm Calm - N/A   Clear
3:55 AM 33.8 °F - 33.8 °F 100% 30.10 in 10.0 mi Calm Calm - N/A   Clear
4:15 AM 32.0 °F - 32.0 °F 100% 30.10 in 10.0 mi Calm Calm - N/A   Clear
4:35 AM 32.0 °F - 32.0 °F 100% 30.11 in 10.0 mi Calm Calm - N/A   Clear
4:55 AM 33.8 °F - 33.8 °F 100% 30.10 in 10.0 mi Calm Calm - N/A   Clear
5:15 AM 33.8 °F - 33.8 °F 100% 30.11 in 10.0 mi Calm Calm - N/A   Clear
5:35 AM 33.8 °F - 33.8 °F 100% 30.11 in 10.0 mi Calm Calm - N/A   Clear
5:55 AM 33.8 °F - 33.8 °F 100% 30.11 in 10.0 mi Calm Calm - N/A   Clear
6:15 AM 35.6 °F - 35.6 °F 100% 30.11 in 10.0 mi Calm Calm - N/A   Clear
6:35 AM 37.4 °F - 37.4 °F 100% 30.11 in 10.0 mi Calm Calm - N/A   Clear
6:55 AM 39.2 °F 37.0 °F 37.4 °F 93% 30.11 in 10.0 mi NNE 3.5 mph - N/A   Clear
7:15 AM 41.0 °F - 37.4 °F 87% 30.11 in 10.0 mi Calm Calm - N/A   Clear
7:35 AM 42.8 °F 40.1 °F 35.6 °F 76% 30.11 in 10.0 mi North 4.6 mph - N/A   Clear
8:15 AM 44.6 °F - 37.4 °F 76% 30.10 in 10.0 mi Calm Calm - N/A   Clear
8:35 AM 46.4 °F - 37.4 °F 71% 30.10 in 10.0 mi Calm Calm - N/A   Clear
8:55 AM 48.2 °F - 37.4 °F 66% 30.09 in 10.0 mi ENE 3.5 mph - N/A   Clear
9:15 AM 50.0 °F - 37.4 °F 62% 30.08 in 10.0 mi East 3.5 mph - N/A   Clear
9:35 AM 51.8 °F - 39.2 °F 62% 30.08 in 10.0 mi East 3.5 mph - N/A   Clear
9:55 AM 51.8 °F - 41.0 °F 67% 30.07 in 10.0 mi ESE 4.6 mph - N/A   Clear
10:15 AM 53.6 °F - 39.2 °F 58% 30.07 in 10.0 mi Calm Calm - N/A   Clear
10:35 AM 53.6 °F - 39.2 °F 58% 30.06 in 10.0 mi SSE 3.5 mph - N/A   Clear
10:55 AM 55.4 °F - 37.4 °F 51% 30.06 in 10.0 mi ESE 4.6 mph - N/A   Clear
11:15 AM 57.2 °F - 35.6 °F 44% 30.05 in 10.0 mi East 3.5 mph - N/A   Clear
11:35 AM 57.2 °F - 35.6 °F 44% 30.04 in 10.0 mi ESE 3.5 mph - N/A   Clear
11:55 AM 59.0 °F - 33.8 °F 39% 30.03 in 10.0 mi Calm Calm - N/A   Clear
12:15 PM 60.8 °F - 35.6 °F 39% 30.03 in 10.0 mi SE 3.5 mph - N/A   Clear
12:35 PM 60.8 °F - 35.6 °F 39% 30.02 in 10.0 mi East 5.8 mph - N/A   Clear
12:55 PM 62.6 °F - 35.6 °F 37% 30.01 in 10.0 mi ESE 5.8 mph - N/A   Clear
1:15 PM 62.6 °F - 33.8 °F 34% 30.00 in 10.0 mi SE 5.8 mph - N/A   Clear
1:35 PM 62.6 °F - 30.2 °F 30% 30.00 in 10.0 mi ESE 5.8 mph - N/A   Clear
1:55 PM 62.6 °F - 32.0 °F 32% 29.99 in 10.0 mi SE 4.6 mph - N/A   Clear
2:15 PM 62.6 °F - 35.6 °F 37% 29.98 in 10.0 mi ESE 5.8 mph - N/A   Clear
2:35 PM 62.6 °F - 35.6 °F 37% 29.97 in 10.0 mi East 4.6 mph - N/A   Clear
2:55 PM 64.4 °F - 37.4 °F 37% 29.97 in 10.0 mi ESE 5.8 mph - N/A   Clear
3:15 PM 62.6 °F - 35.6 °F 37% 29.97 in 10.0 mi East 4.6 mph - N/A   Clear
3:35 PM 62.6 °F - 35.6 °F 37% 29.96 in 10.0 mi East 4.6 mph - N/A   Clear
3:55 PM 62.6 °F - 32.0 °F 32% 29.96 in 10.0 mi SE 4.6 mph - N/A   Clear
4:15 PM 62.6 °F - 33.8 °F 34% 29.95 in 10.0 mi ESE 5.8 mph - N/A   Clear
4:35 PM 62.6 °F - 33.8 °F 34% 29.94 in 10.0 mi East 5.8 mph - N/A   Clear
4:55 PM 62.6 °F - 35.6 °F 37% 29.94 in 10.0 mi East 5.8 mph - N/A   Clear
5:15 PM 62.6 °F - 35.6 °F 37% 29.93 in 10.0 mi East 6.9 mph - N/A   Clear
5:35 PM 62.6 °F - 33.8 °F 34% 29.92 in 10.0 mi East 4.6 mph - N/A   Clear
5:55 PM 60.8 °F - 37.4 °F 42% 29.92 in 10.0 mi East 4.6 mph - N/A   Clear
6:15 PM 59.0 °F - 39.2 °F 48% 29.91 in 10.0 mi Calm Calm - N/A   Clear
6:35 PM 59.0 °F - 39.2 °F 48% 29.91 in 10.0 mi Calm Calm - N/A   Clear
6:55 PM 59.0 °F - 39.2 °F 48% 29.91 in 10.0 mi Calm Calm - N/A   Clear
7:15 PM 57.2 °F - 42.8 °F 59% 29.91 in 10.0 mi Calm Calm - N/A   Clear
7:35 PM 55.4 °F - 44.6 °F 67% 29.90 in 10.0 mi Calm Calm - N/A   Clear
7:55 PM 53.6 °F - 44.6 °F 72% 29.90 in 10.0 mi Calm Calm - N/A   Scattered Clouds
8:15 PM 53.6 °F - 44.6 °F 72% 29.91 in 10.0 mi Calm Calm - N/A   Clear
8:35 PM 53.6 °F - 44.6 °F 72% 29.91 in 10.0 mi Calm Calm - N/A   Mostly Cloudy
8:55 PM 51.8 °F - 44.6 °F 76% 29.92 in 10.0 mi Calm Calm - N/A   Mostly Cloudy
9:15 PM 51.8 °F - 42.8 °F 71% 29.92 in 10.0 mi Calm Calm - N/A   Mostly Cloudy
9:35 PM 51.8 °F - 42.8 °F 71% 29.92 in 10.0 mi Calm Calm - N/A   Mostly Cloudy
9:55 PM 50.0 °F - 42.8 °F 76% 29.92 in 10.0 mi Calm Calm - N/A   Mostly Cloudy
10:15 PM 50.0 °F - 42.8 °F 76% 29.92 in 10.0 mi Calm Calm - N/A   Overcast
10:35 PM 50.0 °F - 42.8 °F 76% 29.92 in 10.0 mi Calm Calm - N/A   Overcast
10:55 PM 50.0 °F - 42.8 °F 76% 29.92 in 10.0 mi Calm Calm - N/A   Overcast
11:15 PM 50.0 °F - 42.8 °F 76% 29.92 in 10.0 mi Calm Calm - N/A   Overcast
11:35 PM 48.2 °F - 42.8 °F 82% 29.92 in 10.0 mi Calm Calm - N/A   Overcast
11:55 PM 48.2 °F - 42.8 °F 82% 29.92 in 10.0 mi Calm Calm - N/A   Overcast